Location: Waco, TX
(31.5480°N, 97.1670°W)
Time: 08:59:43
(UTC-05:00)

ISS - Pass Details

Date: 19 October 2019
Orbit: 411 x 421 km, 51.6° (Epoch: 18 October)

Event Time Altitude Azimuth Distance (km) Brightness Sun altitude
Rises 08:18:37 0° 220° (SW) 2,350 -0.2 8.3°
Reaches altitude 10° 08:20:43 10° 218° (SW) 1,489 -1.1 8.7°
Maximum altitude 08:24:02 73° 134° (SE) 440 -3.2 9.4°
Drops below altitude 10° 08:27:23 10° 49° (NE) 1,492 -0.5 10.0°
Sets 08:29:29 0° 47° (NE) 2,356 0.5 10.5°
